Flag for Venezuela Weather past 2 weeks in Valencia, Venezuela

Now
77 °F

Partly sunny.


Feels Like: 79 °F
Forecast: 71 / 88 °F
Wind: 7 mph from Northeast

Location: Valencia Airport


UV Index: 7 (High)

Visibility: N/A


Pressure: 29.92 "Hg

Humidity: 79%

Dew point: 70 °F

Location of ValenciaLocation

Historic Weather in Valencia

°F

Valencia temperature yesterday

Maximum temperature yesterday: 93 °F (at 3:30 PM)
Minimum temperature yesterday: 73 °F (at 5:30 AM)
Average temperature yesterday: 84 °F

Past Weeks' High & Low Weather Summary

 TemperatureHumidityPressure
High97 °F (Apr 1, 1:30 PM)100% (Apr 5, 1:30 AM)30.07 "Hg (Apr 5, 1:30 AM)
Low73 °F (Apr 2, 6:30 AM)28% (Apr 9, 2:30 PM)29.80 "Hg (Apr 14, 3:30 PM)
Average84 °F64%29.95 "Hg
* Reported Apr 1 6:30 AM — Apr 16 6:30 AM, Valencia, Weather by CustomWeather, © 2014

Note: Actual official high and low records may vary slightly from our data, if they occured in-between our weather recording intervals... More about our weather records

Advertising

Historic Weather Conditions — Data for Previous 24 hours

 ConditionsComfort  
Time TempWeatherWind HumidityBarometerVisibility
6:30 AM
Apr 16
77 °FPartly sunny.7 mph69%29.98 "HgN/A
5:30 AM73 °FPartly sunny.5 mph78%29.95 "HgN/A
4:30 AM77 °FClear.5 mph79%29.95 "Hg10 mi
1:30 AM77 °FPassing clouds.5 mph74%29.89 "HgN/A
10:30 PM
Apr 15
79 °FPassing clouds.5 mph70%29.92 "HgN/A
9:30 PM79 °FPassing clouds.7 mph70%29.89 "HgN/A
8:30 PM81 °FPassing clouds.8 mph66%29.86 "HgN/A
6:30 PM84 °FPartly cloudy.7 mph58%29.80 "HgN/A
5:30 PM91 °FScattered clouds.5 mph44%29.80 "HgN/A
4:30 PM91 °FScattered clouds.3 mph44%29.80 "HgN/A
3:30 PM93 °FScattered clouds.7 mph41%29.80 "HgN/A
2:30 PM91 °FPartly sunny.6 mph44%29.83 "HgN/A
1:30 PM91 °FPartly sunny.3 mph44%29.86 "Hg6 mi
12:30 PM90 °FPartly sunny.6 mph46%29.89 "HgN/A
10:30 AM90 °FPassing clouds.6 mph46%30.01 "HgN/A
9:30 AM84 °FOvercast.7 mph55%30.04 "HgN/A
8:30 AM81 °FOvercast.7 mph62%30.04 "HgN/A
7:30 AM77 °FOvercast.3 mph69%30.01 "HgN/A
Weather by CustomWeather, © 2014

See weather overview